Content
SEND FEEDBACK

Daily
Averages
Monthly
Summary
United States of America

ACHANG BAY, GUAM


Home > North America > United States > Guam
Elevation: 30 feet     Latitude: 13 16N     Longitude: 144 45E

WEATHER
 
SELECT A DAY
Number of Records: 342,166;   Date Range: 1/1/95 - 8/12/14
 
SHARE

PRINT THIS DATA

[ ← Previous Day ]
WEATHER ALMANAC - DECEMBER 25, 2013
[ Next Day → ]
[ °C ]   °F
Weather ElementAverageHighLow
Temperature79.3 °F82.4 °F (1:03 pm)75.2 °F (10:21 am)
Dewpoint72.2 °F78.8 °F (11:03 am) (7:00 pm)
Humidity90.5 %100 % (9:50 am)79 % (1:13 pm)
Barometer29.90 in29.95 in (9:45 am)29.82 in (2:58 pm)
Wind Speed22.5 mph31.1 mph (10:40 pm)
Wind Gust41.4 mph (10:45 pm)
Weather ElementAverage
Visibility9.5 mi
Wind DirectionENE (61.3 °)

Weather ElementTotal
Precipitation0.17 in
Cooling Degree Days13.8 (Base 65)
Growing Degree Days28.8 (Base 50)
Averaged from 129 records on December 25, 2013
WEATHER CONDITIONS BREAKOUT
WIND DIRECTION BREAKOUT
WEATHER BY HOUR - DECEMBER 25, 2013
[ °C ]   °F
Local TimeTemperatureDewpointHumidityBarometerVisibilityWind DirectionWind SpeedGust SpeedPrecipitationEventsConditions
12:58 AM79.2 °F74.7 °F86 %29.91 in10.0 miNE (50°)26.5 mph34.5 mphScattered Clouds
1:03 AM78.8 °F75.2 °F89 %29.93 in10.0 miNE (50°)26.5 mph34.5 mphMostly Cloudy
1:08 AM78.8 °F75.2 °F89 %29.93 in10.0 miENE (60°)25.3 mph34.5 mphMostly Cloudy
1:18 AM78.8 °F75.2 °F89 %29.93 in10.0 miENE (60°)23.0 mph29.9 mphMostly Cloudy
1:58 AM79.7 °F74.3 °F83 %29.89 in10.0 miNE (50°)24.2 mph33.4 mphMostly Cloudy
2:23 AM78.8 °F75.2 °F89 %29.91 in10.0 miENE (60°)27.6 mph35.7 mphMostly Cloudy
2:28 AM78.8 °F73.4 °F83 %29.91 in10.0 miNE (50°)26.5 mph35.7 mphMostly Cloudy
2:33 AM78.8 °F75.2 °F89 %29.91 in10.0 miNE (50°)24.2 mph35.7 mphMostly Cloudy
2:38 AM78.8 °F75.2 °F89 %29.91 in10.0 miNE (50°)26.5 mph32.2 mphMostly Cloudy
2:43 AM78.8 °F75.2 °F89 %29.90 in10.0 miENE (60°)23.0 mph32.2 mphMostly Cloudy
2:53 AM78.8 °F73.4 °F83 %29.90 in10.0 miNE (50°)24.2 mph32.2 mphMostly Cloudy
2:58 AM79.3 °F73.9 °F83 %29.86 in10.0 miNE (50°)25.3 mph29.9 mphMostly Cloudy
3:43 AM78.8 °F75.2 °F89 %29.89 in10.0 miENE (60°)25.3 mph32.2 mphMostly Cloudy
3:48 AM78.8 °F75.2 °F89 %29.89 in10.0 miNE (50°)25.3 mph32.2 mphMostly Cloudy
3:58 AM79.2 °F74.7 °F86 %29.87 in10.0 miNE (50°)25.3 mph31.1 mphMostly Cloudy
4:03 AM78.8 °F75.2 °F89 %29.90 in10.0 miENE (60°)25.3 mph31.1 mphMostly Cloudy
4:58 AM79.0 °F73.6 °F83 %29.87 in10.0 miENE (60°)23.0 mph31.1 mphMostly Cloudy
5:53 AM78.8 °F75.2 °F89 %29.91 in10.0 miNE (50°)24.2 mph31.1 mphMostly Cloudy
5:58 AM78.6 °F75.2 °F89 %29.88 in10.0 miNE (50°)23.0 mph31.1 mphMostly Cloudy
6:08 AM78.8 °F75.2 °F89 %29.91 in10.0 miNE (50°)27.6 mph31.1 mphScattered Clouds
6:13 AM78.8 °F75.2 °F89 %29.91 in10.0 miNE (50°)27.6 mph33.4 mphMostly Cloudy
6:23 AM78.8 °F75.2 °F89 %29.92 in10.0 miENE (60°)21.9 mph31.1 mphScattered Clouds
6:33 AM78.8 °F75.2 °F89 %29.92 in10.0 miNE (50°)25.3 mph33.4 mphScattered Clouds
6:58 AM78.4 °F75.0 °F89 %29.89 in10.0 miENE (60°)21.9 mph28.8 mphScattered Clouds
7:58 AM79.3 °F74.7 °F86 %29.91 in10.0 miENE (60°)23.0 mph29.9 mphPartly Cloudy
8:58 AM80.6 °F75.0 °F83 %29.92 in10.0 miENE (60°)23.0 mph29.9 mphPartly Cloudy
9:33 AM80.6 °F75.2 °F84 %29.94 in10.0 miENE (60°)21.9 mph29.9 mphMostly Cloudy
9:40 AM80.6 °F77.0 °F89 %29.94 in4.0 miENE (70°)23.0 mph29.9 mphRainLight Rain
9:45 AM78.8 °F77.0 °F94 %29.95 in1.8 miENE (70°)21.9 mph33.4 mphRainHeavy Rain
9:50 AM77.0 °F77.0 °F100 %29.95 in2.5 miENE (70°)24.2 mph33.4 mphRainLight Rain
9:55 AM78.8 °F77.0 °F94 %29.95 in8.0 miENE (70°)23.0 mph27.6 mphMostly Cloudy
9:58 AM78.4 °F77.5 °F97 %29.91 in10.0 miENE (70°)21.9 mph28.8 mph0.10 inMostly Cloudy
10:03 AM78.8 °F77.0 °F94 %29.94 in10.0 miENE (70°)20.7 mph28.8 mphMostly Cloudy
10:11 AM78.8 °F77.0 °F94 %29.94 in10.0 miEast (100°)27.6 mph39.1 mphLight Drizzle
10:16 AM77.0 °F75.2 °F94 %29.94 in8.0 miEast (100°)21.9 mph39.1 mphRainLight Rain
10:21 AM75.2 °F75.2 °F100 %29.94 in5.0 miEast (90°)20.7 mph36.8 mphRainLight Rain
10:24 AM75.2 °F75.2 °F100 %29.95 in5.0 miEast (80°)18.4 mph36.8 mphMostly Cloudy
10:29 AM77.0 °F77.0 °F100 %29.94 in10.0 miENE (60°)17.3 mph25.3 mphMostly Cloudy
10:39 AM77.0 °F77.0 °F100 %29.94 in9.0 miENE (70°)21.9 mph26.5 mphMostly Cloudy
10:44 AM77.0 °F77.0 °F100 %29.94 in10.0 miEast (80°)19.6 mph26.5 mphMostly Cloudy
10:58 AM79.2 °F78.4 °F98 %29.91 in10.0 miENE (70°)23.0 mph28.8 mph0.02 inMostly Cloudy
11:03 AM80.6 °F78.8 °F94 %29.93 in10.0 miENE (60°)19.6 mph28.8 mphMostly Cloudy
11:18 AM80.6 °F77.0 °F89 %29.92 in10.0 miENE (70°)24.2 mph28.8 mphMostly Cloudy
11:33 AM80.6 °F78.8 °F94 %29.92 in10.0 miENE (60°)23.0 mphMostly Cloudy
11:38 AM80.6 °F77.0 °F89 %29.92 in10.0 miENE (70°)23.0 mph27.6 mphMostly Cloudy
11:47 AM80.6 °F77.0 °F89 %29.91 in10.0 miENE (70°)21.9 mph31.1 mphLight Drizzle
11:52 AM80.6 °F78.8 °F94 %29.91 in10.0 miENE (70°)20.7 mph31.1 mphLight Drizzle
11:54 AM80.6 °F78.8 °F94 %29.91 in10.0 miENE (60°)24.2 mph29.9 mphMostly Cloudy
11:58 AM80.6 °F78.8 °F94 %29.88 in10.0 miENE (70°)25.3 mph28.8 mph0.00 inMostly Cloudy
12:03 PM80.6 °F77.0 °F89 %29.91 in10.0 miENE (60°)24.2 mph28.8 mphMostly Cloudy
12:08 PM80.6 °F77.0 °F89 %29.91 in10.0 miENE (60°)18.4 mphMostly Cloudy
12:18 PM80.6 °F77.0 °F89 %29.90 in10.0 miENE (60°)21.9 mphMostly Cloudy
12:23 PM80.6 °F77.0 °F89 %29.90 in10.0 miENE (60°)20.7 mphMostly Cloudy
12:33 PM80.6 °F77.0 °F89 %29.89 in10.0 miENE (60°)18.4 mphMostly Cloudy
12:48 PM80.6 °F78.8 °F94 %29.89 in10.0 miENE (60°)21.9 mph26.5 mphMostly Cloudy
12:58 PM81.1 °F77.9 °F90 %29.86 in10.0 miENE (70°)23.0 mph28.8 mphMostly Cloudy
1:03 PM82.4 °F77.0 °F84 %29.88 in10.0 miENE (60°)21.9 mph29.9 mphMostly Cloudy
1:08 PM80.6 °F77.0 °F89 %29.88 in10.0 miENE (70°)20.7 mph29.9 mphMostly Cloudy
1:13 PM82.4 °F75.2 °F79 %29.88 in10.0 miENE (60°)23.0 mph29.9 mphMostly Cloudy
1:23 PM82.4 °F75.2 °F79 %29.87 in10.0 miENE (60°)23.0 mph27.6 mphMostly Cloudy
1:28 PM82.4 °F77.0 °F84 %29.87 in10.0 miENE (70°)23.0 mphScattered Clouds
1:33 PM82.4 °F77.0 °F84 %29.87 in10.0 miENE (60°)21.9 mphMostly Cloudy
1:48 PM80.6 °F75.2 °F84 %29.86 in10.0 miENE (60°)21.9 mph27.6 mphMostly Cloudy
1:58 PM82.4 °F76.8 °F83 %29.84 in10.0 miNE (50°)18.4 mph27.6 mphMostly Cloudy
2:03 PM82.4 °F77.0 °F84 %29.86 in10.0 miNE (50°)21.9 mph25.3 mphMostly Cloudy
2:18 PM80.6 °F77.0 °F89 %29.86 in9.0 miENE (60°)24.2 mph27.6 mphMostly Cloudy
2:20 PM80.6 °F77.0 °F89 %29.86 in8.0 miENE (70°)20.7 mph27.6 mphRainLight Rain
2:25 PM78.8 °F77.0 °F94 %29.85 in8.0 miENE (60°)18.4 mph28.8 mphRainLight Rain
2:29 PM80.6 °F75.2 °F84 %29.86 in10.0 miENE (60°)20.7 mph28.8 mphScattered Clouds
2:58 PM81.0 °F76.6 °F87 %29.82 in10.0 miENE (60°)20.7 mph27.6 mph0.00 inScattered Clouds
3:03 PM80.6 °F77.0 °F89 %29.85 in10.0 miNE (50°)25.3 mph31.1 mphMostly Cloudy
3:28 PM80.6 °F75.2 °F84 %29.85 in10.0 miENE (60°)20.7 mphMostly Cloudy
3:33 PM80.6 °F77.0 °F89 %29.85 in10.0 miNE (50°)24.2 mphMostly Cloudy
3:48 PM82.4 °F75.2 °F79 %29.85 in10.0 miNE (50°)25.3 mph29.9 mphScattered Clouds
3:53 PM82.4 °F75.2 °F79 %29.86 in10.0 miNE (50°)21.9 mph29.9 mphMostly Cloudy
3:58 PM82.2 °F75.9 °F81 %29.82 in10.0 miNE (50°)26.5 mph31.1 mphMostly Cloudy
4:08 PM82.4 °F77.0 °F84 %29.85 in10.0 miNE (50°)24.2 mph28.8 mphMostly Cloudy
4:13 PM82.4 °F77.0 °F84 %29.86 in10.0 miNE (50°)21.9 mph28.8 mphScattered Clouds
4:18 PM82.4 °F77.0 °F84 %29.86 in10.0 miNE (50°)24.2 mph28.8 mphMostly Cloudy
4:23 PM82.4 °F77.0 °F84 %29.86 in10.0 miNE (50°)23.0 mph31.1 mphMostly Cloudy
4:38 PM80.6 °F77.0 °F89 %29.85 in10.0 miNE (50°)23.0 mphMostly Cloudy
4:58 PM80.6 °F76.6 °F88 %29.82 in10.0 miENE (60°)24.2 mphMostly Cloudy
5:18 PM80.6 °F77.0 °F89 %29.86 in10.0 miNE (50°)23.0 mphMostly Cloudy
5:53 PM80.6 °F77.0 °F89 %29.86 in10.0 miENE (60°)25.3 mph34.5 mphMostly Cloudy
5:58 PM80.2 °F76.5 °F88 %29.84 in10.0 miENE (60°)19.6 mph34.5 mphMostly Cloudy
6:08 PM80.6 °F77.0 °F89 %29.87 in10.0 miENE (60°)25.3 mph29.9 mphMostly Cloudy
6:09 PM80.6 °F77.0 °F89 %29.87 in10.0 miENE (60°)25.3 mph29.9 mphLight Drizzle
6:14 PM80.6 °F77.0 °F89 %29.87 in10.0 miENE (60°)23.0 mph31.1 mphLight Drizzle
6:21 PM80.6 °F77.0 °F89 %29.87 in10.0 miENE (60°)24.2 mph31.1 mphScattered Clouds
6:46 PM80.6 °F77.0 °F89 %29.88 in10.0 miNE (50°)20.7 mph34.5 mphMostly Cloudy
6:51 PM80.6 °F77.0 °F89 %29.88 in10.0 miENE (60°)21.9 mph29.9 mphMostly Cloudy
6:56 PM80.6 °F77.0 °F89 %29.88 in10.0 miENE (60°)21.9 mph29.9 mphMostly Cloudy
6:58 PM79.9 °F76.8 °F90 %29.86 in10.0 miENE (60°)26.5 mph34.5 mph0.00 inMostly Cloudy
7:01 PM80.6 °F77.0 °F89 %29.89 in10.0 miENE (60°)24.2 mph34.5 mphRainLight Rain
7:10 PM78.8 °F78.8 °F100 %29.89 in10.0 miNE (50°)23.0 mphScattered Clouds
7:30 PM78.8 °F77.0 °F94 %29.90 in10.0 miENE (60°)24.2 mph31.1 mphLight Drizzle
7:39 PM78.8 °F77.0 °F94 %29.90 in10.0 miENE (60°)23.0 mph31.1 mphPartly Cloudy
7:58 PM79.7 °F76.3 °F89 %29.88 in10.0 miENE (60°)23.0 mph0.00 inScattered Clouds
8:58 PM79.9 °F75.2 °F86 %29.89 in10.0 miENE (70°)20.7 mph29.9 mphMostly Cloudy
9:03 PM78.8 °F77.0 °F94 %29.93 in10.0 miEast (90°)18.4 mphMostly Cloudy
9:08 PM77.0 °F77.0 °F100 %29.92 in10.0 miEast (80°)18.4 mphMostly Cloudy
9:13 PM77.0 °F77.0 °F100 %29.92 in10.0 miEast (80°)16.1 mphMostly Cloudy
9:18 PM77.0 °F77.0 °F100 %29.92 in10.0 miENE (70°)18.4 mphOvercast
9:19 PM77.0 °F77.0 °F100 %29.92 in10.0 miENE (60°)19.6 mphRainLight Rain
9:24 PM77.0 °F77.0 °F100 %29.92 in10.0 miENE (60°)25.3 mph33.4 mphLight Drizzle
9:29 PM78.8 °F77.0 °F94 %29.92 in10.0 miENE (60°)21.9 mph33.4 mphLight Drizzle
9:33 PM78.8 °F77.0 °F94 %29.92 in10.0 miENE (60°)21.9 mph27.6 mphMostly Cloudy
9:35 PM78.8 °F77.0 °F94 %29.92 in10.0 miENE (60°)25.3 mph27.6 mphRainLight Rain
9:40 PM78.8 °F77.0 °F94 %29.92 in7.0 miENE (60°)21.9 mph27.6 mphRainLight Rain
9:45 PM78.8 °F77.0 °F94 %29.92 in6.0 miENE (60°)20.7 mph29.9 mphRainLight Rain
9:50 PM78.8 °F77.0 °F94 %29.92 in9.0 miENE (60°)19.6 mph29.9 mphRainLight Rain
9:52 PM78.8 °F77.0 °F94 %29.92 in10.0 miENE (60°)20.7 mph29.9 mphMostly Cloudy
9:58 PM78.6 °F77.0 °F95 %29.89 in10.0 miENE (60°)23.0 mph28.8 mph0.01 inMostly Cloudy
10:02 PM78.8 °F77.0 °F94 %29.92 in10.0 miENE (60°)20.7 mph28.8 mphLight Drizzle
10:12 PM78.8 °F77.0 °F94 %29.93 in10.0 miENE (60°)23.0 mph29.9 mphMostly Cloudy
10:40 PM78.8 °F77.0 °F94 %29.93 in8.0 miENE (60°)31.1 mph29.9 mphRainLight Rain
10:45 PM77.0 °F77.0 °F100 %29.94 in4.0 miENE (70°)27.6 mph41.4 mphRainLight Rain
10:50 PM75.2 °F75.2 °F100 %29.94 in4.0 miENE (70°)24.2 mph41.4 mphRainLight Rain
10:55 PM75.2 °F75.2 °F100 %29.94 in8.0 miENE (70°)23.0 mph33.4 mphRainLight Rain
10:58 PM75.6 °F75.6 °F100 %29.91 in10.0 miENE (70°)18.4 mph26.5 mph0.04 inRainLight Rain
11:00 PM75.2 °F75.2 °F100 %29.93 in10.0 miENE (70°)17.3 mph26.5 mphOvercast
11:05 PM75.2 °F75.2 °F100 %29.93 in10.0 miENE (60°)19.6 mph26.5 mphOvercast
11:10 PM77.0 °F0.0 °F29.93 in10.0 miNE (50°)17.3 mph26.5 mphOvercast
11:15 PM77.0 °F0.0 °F29.93 in10.0 miENE (60°)15.0 mphOvercast
11:46 PM77.0 °F0.0 °F29.92 in10.0 miENE (60°)17.3 mphRainLight Rain
11:51 PM77.0 °F0.0 °F29.92 in10.0 miENE (60°)21.9 mph25.3 mphRainLight Rain
11:55 PM77.0 °F0.0 °F29.92 in10.0 miENE (70°)19.6 mph25.3 mphMostly Cloudy
11:58 PM77.0 °F0.0 °F29.89 in10.0 miENE (70°)19.6 mph25.3 mph0.00 inMostly Cloudy
11:59 PM77.0 °F0.0 °F29.92 in10.0 miENE (60°)19.6 mph25.3 mphLight Drizzle
Hourly data recorded from PGUA, located miles away from Achang Bay, Guam







STORIES FROM OUR PARTNERS